Weather History for KPSX - February, 2014

Change the Weather History Date:

Thursday, February 27, 2014

  Actual Average Record
Temperature  
Mean Temperature 44 °F -  
Max Temperature 53 °F 68 °F 84 °F (1956)
Min Temperature 34 °F 50 °F 21 °F (2002)
Degree Days  
Heating Degree Days 22    
Moisture  
Dew Point 35 °F    
Average Humidity 70    
Maximum Humidity 89    
Minimum Humidity 46    
Precipitation  
Precipitation 0.00 in - - ()
Sea Level Pressure  
Sea Level Pressure 30.11 in    
Wind  
Wind Speed 9 mph (East)    
Max Wind Speed 12 mph    
Max Gust Speed -    
Visibility 10 miles    
Events      
Averages and records for this station are not official NWS values.
T = Trace of Precipitation, MM = Missing Value Source: NWS Daily Summary

Daily Weather History Graph

Daily Weather History Graph

Search for Another Location

Airport or City:

Trip Planner

Search our weather history database for the weather conditions in past years. The results will help you decide how hot, cold, wet, or windy it might be!

Date:

Astronomy

Feb. 27, 2014 Rise Set
Actual Time 6:52 AM CST 6:23 PM CST
Civil Twilight 6:28 AM CST 6:47 PM CST
Nautical Twilight 6:00 AM CST 7:14 PM CST
Astronomical Twilight 5:33 AM CST 7:42 PM CST
Moon 5:19 AM CST (2/27) 4:54 PM CST (2/27)
Length of Visible Light 12h 19m
Length of Day
11h 31m
Waning Crescent, 4% of the Moon is Illuminated
Feb 27
Waning Crescent
Mar 1
New
Mar 8
First Quarter
Mar 16
Full
Mar 23
Last Quarter

Hourly Weather History & Observations

Time (CST) Temp. Windchill Dew Point Humidity Pressure Visibility Wind Dir Wind Speed Gust Speed Precip Events Conditions
12:53 AM 37.9 °F 31.5 °F 34.0 °F 86% 30.17 in 9.0 mi NNW 9.2 mph - N/A   Clear
1:53 AM 37.0 °F 29.8 °F 34.0 °F 89% 30.16 in 7.0 mi North 10.4 mph - N/A   Clear
2:53 AM 37.0 °F 30.4 °F 33.1 °F 86% 30.15 in 8.0 mi North 9.2 mph - N/A   Clear
3:53 AM 36.0 °F 28.5 °F 33.1 °F 89% 30.14 in 9.0 mi North 10.4 mph - N/A   Clear
4:53 AM 36.0 °F 29.0 °F 32.0 °F 86% 30.14 in 9.0 mi North 9.2 mph - N/A   Clear
5:53 AM 35.1 °F 28.6 °F 32.0 °F 89% 30.15 in 9.0 mi North 8.1 mph - N/A   Clear
6:53 AM 34.0 °F 28.8 °F 30.9 °F 89% 30.18 in 10.0 mi North 5.8 mph - N/A   Clear
7:53 AM 37.9 °F 32.1 °F 32.0 °F 79% 30.20 in 10.0 mi NNE 8.1 mph - N/A   Clear
8:53 AM 42.1 °F 35.7 °F 28.9 °F 60% 30.21 in 10.0 mi NE 11.5 mph - N/A   Clear
9:53 AM 46.9 °F - 30.0 °F 52% 30.22 in 10.0 mi NE 9.2 mph - N/A   Clear
10:53 AM 48.9 °F - 30.0 °F 48% 30.20 in 10.0 mi NNE 8.1 mph - N/A   Clear
11:53 AM 50.0 °F - 30.0 °F 46% 30.18 in 10.0 mi SSE 6.9 mph - N/A   Clear
12:53 PM 52.0 °F - 32.0 °F 47% 30.14 in 10.0 mi Variable 4.6 mph - N/A   Clear
1:53 PM 52.0 °F - 33.1 °F 49% 30.10 in 10.0 mi SSW 8.1 mph - N/A   Clear
2:53 PM 53.1 °F - 36.0 °F 52% 30.07 in 10.0 mi SSW 10.4 mph - N/A   Clear
3:53 PM 52.0 °F - 37.0 °F 57% 30.05 in 10.0 mi SSE 9.2 mph - N/A   Clear
4:53 PM 52.0 °F - 36.0 °F 54% 30.03 in 10.0 mi SSE 8.1 mph - N/A   Clear
5:53 PM 50.0 °F - 36.0 °F 59% 30.02 in 10.0 mi SSE 8.1 mph - N/A   Clear
6:53 PM 46.0 °F 43.1 °F 35.1 °F 66% 30.02 in 10.0 mi SE 5.8 mph - N/A   Clear
7:53 PM 45.0 °F 41.2 °F 36.0 °F 71% 30.02 in 10.0 mi SE 6.9 mph - N/A   Clear
8:53 PM 48.0 °F - 41.0 °F 77% 30.02 in 10.0 mi SE 9.2 mph - N/A   Clear
9:53 PM 50.0 °F - 43.0 °F 77% 30.01 in 10.0 mi SE 11.5 mph - N/A   Clear
10:53 PM 48.9 °F - 44.1 °F 83% 30.00 in 10.0 mi SE 9.2 mph - N/A   Clear
11:53 PM 48.0 °F - 44.1 °F 86% 29.99 in 10.0 mi SE 5.8 mph - N/A   Clear